Weather History for Nausori, Fiji

Change the Weather History Date:

Thursday, January 14, 2010

  Actual Average Record
Temperature  
Mean Temperature 78 °F -  
Max Temperature 84 °F - - ()
Min Temperature 73 °F - - ()
Cooling Degree Days 14    
Growing Degree Days 28 (Base 50)    
Moisture  
Dew Point 73 °F    
Average Humidity 82    
Maximum Humidity 100    
Minimum Humidity 64    
Precipitation  
Precipitation 0.00 in - - ()
Sea Level Pressure  
Sea Level Pressure 29.78 in    
Wind  
Wind Speed 3 mph ()    
Max Wind Speed 12 mph    
Max Gust Speed -    
Visibility 13.6 miles    
Events Rain    
T = Trace of Precipitation, MM = Missing Value Source: Averaged Metar Reports

Daily Weather History Graph

Daily Weather History Graph

Search for Another Location

Airport:

Trip Planner

Search our weather history database for the weather conditions in past years. The results will help you decide how hot, cold, wet, or windy it might be!

Date:

Astronomy

Jan. 14, 2010 Rise Set
Actual Time 6:41 AM FJST 7:47 PM FJST
Civil Twilight 6:17 AM FJST 8:11 PM FJST
Nautical Twilight 5:49 AM FJST 8:39 PM FJST
Astronomical Twilight 5:20 AM FJST 9:08 PM FJST
Moon 5:25 AM FJST (1/14) 6:58 PM FJST (1/14)
Length of Visible Light 13h 53m
Length of Day
13h 06m
Waning Crescent, 2% of the Moon is Illuminated
Jan 14
Waning Crescent
Jan 15
New
Jan 23
First Quarter
Jan 30
Full
Feb 6
Last Quarter

Hourly Weather History & Observations

Time (FJST) Temp. Heat Index Dew Point Humidity Pressure Visibility Wind Dir Wind Speed Gust Speed Precip Events Conditions
12:00 AM 78.8 °F - 73.4 °F 83% 29.83 in 24.9 mi Calm Calm - N/A   Mostly Cloudy
1:00 AM 75 °F - 74 °F 95% 29.82 in 12 mi Calm Calm - -   Partly Cloudy
1:00 AM 75.2 °F - 73.4 °F 94% 29.80 in 24.9 mi Calm Calm - N/A   Scattered Clouds
2:00 AM 75.2 °F - 73.4 °F 94% 29.77 in 24.9 mi Calm Calm - N/A   Partly Cloudy
3:00 AM 73.4 °F - 73.4 °F 100% 29.77 in 24.9 mi Calm Calm - N/A   Partly Cloudy
4:00 AM 74 °F - 73 °F 97% 29.76 in 12 mi Calm Calm - -   Partly Cloudy
4:00 AM 73.4 °F - 73.4 °F 100% 29.74 in 24.9 mi Calm Calm - N/A   Partly Cloudy
5:00 AM 73.4 °F - 71.6 °F 94% 29.74 in 24.9 mi Calm Calm - N/A   Partly Cloudy
6:00 AM 73.4 °F - 71.6 °F 94% 29.77 in 31.1 mi Calm Calm - N/A   Partly Cloudy
7:00 AM 73 °F - 72 °F 96% 29.80 in 31 mi Calm Calm - -   Partly Cloudy
7:00 AM 73.4 °F - 71.6 °F 94% 29.77 in 31.1 mi Calm Calm - N/A   Partly Cloudy
8:00 AM 75.2 °F - 75.2 °F 100% 29.80 in 31.1 mi Calm Calm - N/A   Scattered Clouds
9:00 AM 82.4 °F 89.5 °F 75.2 °F 79% 29.80 in 31.1 mi SE 5.8 mph - N/A   Mostly Cloudy
10:00 AM 82 °F - 73 °F 67% 29.83 in 31 mi SSE 5.8 mph - -   Partly Cloudy
11:00 AM 84.2 °F 89.6 °F 71.6 °F 66% 29.80 in 31.1 mi SSE 5.8 mph - N/A   Mostly Cloudy
12:00 PM 84.2 °F 89.6 °F 71.6 °F 66% 29.80 in 31.1 mi SSE 11.5 mph - N/A   Scattered Clouds
1:00 PM 83 °F - 73 °F 64% 29.79 in 31 mi SSE 8.1 mph - -   Partly Cloudy
1:00 PM 82.4 °F 88.2 °F 73.4 °F 74% 29.77 in 31.1 mi SSE 8.1 mph - N/A   Scattered Clouds
2:00 PM 82.4 °F 88.2 °F 73.4 °F 74% 29.77 in 31.1 mi SSE 5.8 mph - N/A   Mostly Cloudy
3:00 PM 82.4 °F 88.2 °F 73.4 °F 74% 29.77 in 31.1 mi South 11.5 mph - N/A   Mostly Cloudy
4:00 PM 82 °F - 73 °F 67% 29.76 in 31 mi SE 8.1 mph - -   Partly Cloudy
4:00 PM 82.4 °F 88.2 °F 73.4 °F 74% 29.74 in 31.1 mi SE 8.1 mph - N/A   Mostly Cloudy
5:00 PM 80.6 °F 85.4 °F 73.4 °F 79% 29.74 in 31.1 mi SSE 8.1 mph - N/A   Mostly Cloudy
6:00 PM 80.6 °F 85.4 °F 73.4 °F 79% 29.74 in 31.1 mi SE 9.2 mph - N/A   Scattered Clouds
7:00 PM 80 °F - 74 °F 76% 29.76 in 31 mi SE 9.2 mph - -   Partly Cloudy
7:00 PM 80.6 °F 85.4 °F 73.4 °F 79% 29.74 in 31.1 mi SE 9.2 mph - N/A   Mostly Cloudy
8:00 PM 77.0 °F - 71.6 °F 83% 29.77 in 18.6 mi SE 9.2 mph - N/A Rain Light Rain Showers
9:00 PM 78.8 °F - 71.6 °F 78% 29.80 in 24.9 mi SSE 4.6 mph - N/A   Mostly Cloudy
10:00 PM 78 °F - 72 °F 76% 29.82 in 12 mi SSE 4.6 mph - -   Partly Cloudy
10:00 PM 78.8 °F - 71.6 °F 78% 29.80 in 24.9 mi SSE 4.6 mph - N/A   Mostly Cloudy
11:00 PM 78.8 °F - 71.6 °F 78% 29.83 in 24.9 mi Calm Calm - N/A   Scattered Clouds